Location: ?????????
(38.5999°N, 22.7695°E)
Time: 13:46:23
(UTC+00:00)

Cosmos 2074 Rocket - Pass Details

Date: 23 May 2024
Orbit: 966 x 986 km, 82.9° (Epoch: 12 June)

Event Time Altitude Azimuth Distance (km) Brightness Sun altitude
Exits shadow 01:04:02 19° 169° (S) 2,135 5.4 -20.1°
Maximum altitude 01:08:33 64° 93° (E) 1,071 4.3 -19.5°
Drops below altitude 10° 01:14:41 10° 13° (NNE) 2,718 7.2 -18.7°
Sets 01:17:13 0° 11° (N) 3,667 8.0 -18.4°
